| time (UTC) | temp C | wind direction | speed KPH | gust KPH | rain 1hr cm | rain 24hr cm | rain mn cm | humidity % | barometer mb |
| 20260509101552 | 8 | 122 | 0.0 | 0.0 | 0.00 | 0.00 | 0.00 | 89 | 1010.1 |
| 20260509101049 | 8 | 117 | 0.0 | 0.0 | 0.00 | 0.00 | 0.00 | 89 | 1010.0 |
| 20260509100546 | 8 | 111 | 0.0 | 0.0 | 0.00 | 0.00 | 0.00 | 89 | 1010.1 |
| 20260509100044 | 8 | 134 | 0.0 | 0.0 | 0.00 | 0.00 | 0.00 | 89 | 1010.0 |
| 20260509095540 | 8 | 110 | 0.0 | 0.0 | 0.00 | 0.00 | 0.00 | 89 | 1010.1 |
| 20260509095038 | 8 | 134 | 0.0 | 0.0 | 0.00 | 0.00 | 0.00 | 88 | 1010.0 |
| 20260509094534 | 8 | 150 | 1.6 | 1.6 | 0.00 | 0.00 | 0.00 | 88 | 1009.9 |
| 20260509094031 | 8 | 97 | 0.0 | 1.6 | 0.00 | 0.00 | 0.00 | 88 | 1009.9 |
| 20260509093529 | 8 | 146 | 0.0 | 1.6 | 0.00 | 0.00 | 0.00 | 88 | 1010.1 |
| 20260509093027 | 8 | 125 | 0.0 | 0.0 | 0.00 | 0.00 | 0.00 | 88 | 1009.9 |
| 20260509092524 | 8 | 143 | 0.0 | 0.0 | 0.00 | 0.00 | 0.00 | 88 | 1010.1 |
| 20260509092023 | 8 | 117 | 0.0 | 0.0 | 0.00 | 0.00 | 0.00 | 87 | 1009.8 |
| 20260509091520 | 8 | 81 | 1.6 | 1.6 | 0.00 | 0.00 | 0.00 | 87 | 1009.8 |
| 20260509091016 | 8 | 143 | 0.0 | 0.0 | 0.00 | 0.00 | 0.00 | 87 | 1009.7 |
| 20260509090514 | 8 | 116 | 0.0 | 0.0 | 0.00 | 0.00 | 0.00 | 87 | 1009.6 |
| 20260509090012 | 8 | 98 | 1.6 | 1.6 | 0.00 | 0.00 | 0.00 | 87 | 1009.9 |
| 20260509085508 | 8 | 120 | 0.0 | 0.0 | 0.00 | 0.00 | 0.00 | 87 | 1009.7 |
| 20260509085004 | 8 | 159 | 1.6 | 1.6 | 0.00 | 0.00 | 0.00 | 87 | 1010.0 |
| 20260509084502 | 8 | 118 | 0.0 | 0.0 | 0.00 | 0.00 | 0.00 | 87 | 1010.0 |
| 20260509083959 | 8 | 43 | 1.6 | 1.6 | 0.00 | 0.00 | 0.00 | 87 | 1009.7 |
| 20260509083456 | 8 | 107 | 0.0 | 0.0 | 0.00 | 0.00 | 0.00 | 86 | 1009.8 |
| 20260509082952 | 8 | 144 | 0.0 | 0.0 | 0.00 | 0.00 | 0.00 | 86 | 1010.0 |
| 20260509082450 | 8 | 114 | 0.0 | 0.0 | 0.00 | 0.00 | 0.00 | 86 | 1009.8 |
| 20260509081947 | 8 | 105 | 0.0 | 0.0 | 0.00 | 0.00 | 0.00 | 86 | 1009.7 |
| 20260509081444 | 8 | 131 | 0.0 | 0.0 | 0.00 | 0.00 | 0.00 | 86 | 1010.3 |
| 20260509080941 | 8 | 132 | 0.0 | 0.0 | 0.00 | 0.00 | 0.00 | 86 | 1009.7 |
| 20260509080439 | 8 | 133 | 0.0 | 0.0 | 0.00 | 0.00 | 0.00 | 86 | 1009.7 |
| 20260509075937 | 8 | 107 | 0.0 | 0.0 | 0.00 | 0.00 | 0.00 | 86 | 1009.8 |
| 20260509075433 | 8 | 94 | 0.0 | 1.6 | 0.00 | 0.00 | 0.00 | 85 | 1009.8 |
| 20260509074932 | 8 | 133 | 0.0 | 0.0 | 0.00 | 0.00 | 0.00 | 85 | 1009.9 |
| 20260509074429 | 8 | 125 | 0.0 | 1.6 | 0.00 | 0.00 | 0.00 | 85 | 1009.8 |
| 20260509073925 | 8 | 124 | 0.0 | 0.0 | 0.00 | 0.00 | 0.00 | 85 | 1009.8 |
| 20260509073421 | 8 | 124 | 0.0 | 0.0 | 0.00 | 0.00 | 0.00 | 85 | 1009.9 |
| 20260509072918 | 8 | 130 | 0.0 | 0.0 | 0.00 | 0.00 | 0.00 | 85 | 1009.9 |
| 20260509072415 | 9 | 115 | 0.0 | 0.0 | 0.00 | 0.00 | 0.00 | 84 | 1010.1 |
| 20260509071911 | 9 | 95 | 1.6 | 1.6 | 0.00 | 0.00 | 0.00 | 84 | 1010.2 |
| 20260509071408 | 9 | 132 | 0.0 | 0.0 | 0.00 | 0.00 | 0.00 | 84 | 1010.2 |
| 20260509070906 | 9 | 115 | 0.0 | 0.0 | 0.00 | 0.00 | 0.00 | 84 | 1010.2 |
| 20260509070402 | 9 | 158 | 0.0 | 1.6 | 0.00 | 0.00 | 0.00 | 84 | 1010.1 |
| 20260509065858 | 9 | 110 | 0.0 | 1.6 | 0.00 | 0.00 | 0.00 | 84 | 1010.0 |
| 20260509065355 | 9 | 111 | 0.0 | 0.0 | 0.00 | 0.00 | 0.00 | 83 | 1010.0 |
| 20260509064850 | 9 | 97 | 0.0 | 1.6 | 0.00 | 0.00 | 0.00 | 83 | 1010.3 |
| 20260509064348 | 9 | 335 | 1.6 | 1.6 | 0.00 | 0.00 | 0.00 | 83 | 1010.5 |
| 20260509063846 | 9 | 134 | 0.0 | 0.0 | 0.00 | 0.00 | 0.00 | 82 | 1010.7 |
| 20260509063342 | 9 | 146 | 0.0 | 1.6 | 0.00 | 0.00 | 0.00 | 82 | 1010.7 |
| 20260509062839 | 9 | 102 | 0.0 | 0.0 | 0.00 | 0.00 | 0.00 | 82 | 1010.5 |
| 20260509062336 | 9 | 105 | 0.0 | 0.0 | 0.00 | 0.00 | 0.00 | 82 | 1010.5 |
| 20260509061833 | 9 | 106 | 0.0 | 0.0 | 0.00 | 0.00 | 0.00 | 81 | 1010.8 |
| 20260509061332 | 10 | 106 | 0.0 | 0.0 | 0.00 | 0.00 | 0.00 | 81 | 1011.0 |
| 20260509060828 | 10 | 94 | 1.6 | 1.6 | 0.00 | 0.00 | 0.00 | 81 | 1011.3 |
| 20260509060325 | 10 | 107 | 0.0 | 0.0 | 0.00 | 0.00 | 0.00 | 80 | 1011.0 |
| 20260509055820 | 10 | 107 | 0.0 | 0.0 | 0.00 | 0.00 | 0.00 | 80 | 1010.9 |
| 20260509055316 | 9 | 107 | 0.0 | 0.0 | 0.00 | 0.00 | 0.00 | 80 | 1011.1 |
| 20260509054813 | 9 | 107 | 0.0 | 0.0 | 0.00 | 0.00 | 0.00 | 80 | 1011.1 |
| 20260509054310 | 10 | 107 | 0.0 | 0.0 | 0.00 | 0.00 | 0.00 | 80 | 1011.4 |
| 20260509053808 | 10 | 107 | 0.0 | 0.0 | 0.00 | 0.00 | 0.00 | 80 | 1011.3 |
| 20260509053305 | 10 | 108 | 0.0 | 0.0 | 0.00 | 0.00 | 0.00 | 80 | 1011.4 |
| 20260509052803 | 10 | 107 | 0.0 | 0.0 | 0.00 | 0.00 | 0.00 | 79 | 1011.4 |
| 20260509052300 | 10 | 112 | 0.0 | 0.0 | 0.00 | 0.00 | 0.00 | 78 | 1011.6 |
| 20260509051758 | 10 | 124 | 1.6 | 1.6 | 0.00 | 0.00 | 0.00 | 78 | 1011.4 |
| 20260509051256 | 10 | 101 | 0.0 | 0.0 | 0.00 | 0.00 | 0.00 | 78 | 1011.7 |
| 20260509050752 | 10 | 95 | 0.0 | 1.6 | 0.00 | 0.00 | 0.00 | 77 | 1011.8 |
| 20260509050249 | 9 | 63 | 1.6 | 1.6 | 0.00 | 0.00 | 0.00 | 79 | 1012.0 |
| 20260509045746 | 9 | 96 | 0.0 | 1.6 | 0.00 | 0.00 | 0.00 | 79 | 1011.7 |
| 20260509045243 | 9 | 90 | 0.0 | 0.0 | 0.00 | 0.00 | 0.00 | 79 | 1012.0 |
| 20260509044740 | 10 | 87 | 0.0 | 1.6 | 0.00 | 0.00 | 0.00 | 78 | 1011.9 |
| 20260509044238 | 10 | 96 | 0.0 | 0.0 | 0.00 | 0.00 | 0.00 | 79 | 1011.9 |
| 20260509043734 | 10 | 97 | 0.0 | 0.0 | 0.00 | 0.00 | 0.00 | 79 | 1012.0 |
| 20260509043230 | 10 | 34 | 3.2 | 4.8 | 0.00 | 0.00 | 0.00 | 78 | 1012.1 |
| 20260509042726 | 10 | 101 | 0.0 | 0.0 | 0.00 | 0.00 | 0.00 | 77 | 1011.8 |
| 20260509042222 | 10 | 78 | 0.0 | 1.6 | 0.00 | 0.00 | 0.00 | 77 | 1012.1 |
| 20260509041720 | 10 | 104 | 0.0 | 0.0 | 0.00 | 0.00 | 0.00 | 77 | 1011.7 |
| 20260509041217 | 10 | 105 | 0.0 | 0.0 | 0.00 | 0.00 | 0.00 | 76 | 1012.0 |
| 20260509040715 | 10 | 105 | 0.0 | 0.0 | 0.00 | 0.00 | 0.00 | 75 | 1012.1 |
| 20260509040212 | 10 | 105 | 0.0 | 0.0 | 0.00 | 0.00 | 0.00 | 74 | 1011.8 |
| 20260509035708 | 11 | 105 | 0.0 | 0.0 | 0.00 | 0.00 | 0.00 | 73 | 1011.9 |
| 20260509035205 | 10 | 105 | 0.0 | 0.0 | 0.00 | 0.00 | 0.00 | 72 | 1011.8 |
| 20260509034702 | 10 | 105 | 0.0 | 0.0 | 0.00 | 0.00 | 0.00 | 72 | 1012.0 |
| 20260509034200 | 10 | 105 | 0.0 | 0.0 | 0.00 | 0.00 | 0.00 | 72 | 1011.8 |
| 20260509033657 | 10 | 105 | 0.0 | 0.0 | 0.00 | 0.00 | 0.00 | 72 | 1011.6 |
| 20260509033153 | 10 | 104 | 0.0 | 0.0 | 0.00 | 0.00 | 0.00 | 72 | 1011.4 |
| 20260509032651 | 11 | 53 | 1.6 | 1.6 | 0.00 | 0.00 | 0.00 | 72 | 1011.5 |
| 20260509032147 | 11 | 112 | 0.0 | 0.0 | 0.00 | 0.00 | 0.00 | 71 | 1011.5 |
| 20260509031645 | 11 | 132 | 0.0 | 0.0 | 0.00 | 0.00 | 0.00 | 70 | 1011.6 |
| 20260509031142 | 11 | 132 | 0.0 | 0.0 | 0.00 | 0.00 | 0.00 | 70 | 1011.5 |
| 20260509030641 | 11 | 107 | 0.0 | 0.0 | 0.00 | 0.00 | 0.00 | 70 | 1011.5 |
| 20260509030138 | 11 | 111 | 0.0 | 0.0 | 0.00 | 0.00 | 0.00 | 70 | 1011.4 |
| 20260509025633 | 11 | 137 | 0.0 | 0.0 | 0.00 | 0.00 | 0.00 | 69 | 1011.6 |
| 20260509025129 | 11 | 114 | 0.0 | 0.0 | 0.00 | 0.00 | 0.00 | 70 | 1011.4 |
| 20260509024625 | 11 | 104 | 0.0 | 0.0 | 0.00 | 0.00 | 0.00 | 70 | 1011.7 |
| 20260509024121 | 11 | 102 | 0.0 | 0.0 | 0.00 | 0.00 | 0.00 | 68 | 1011.4 |
| 20260509023620 | 11 | 107 | 0.0 | 0.0 | 0.00 | 0.00 | 0.00 | 66 | 1011.3 |
| 20260509023116 | 11 | 115 | 1.6 | 1.6 | 0.00 | 0.00 | 0.00 | 66 | 1011.3 |
| 20260509022612 | 11 | 117 | 1.6 | 1.6 | 0.00 | 0.00 | 0.00 | 65 | 1011.5 |
| 20260509022111 | 11 | 116 | 0.0 | 0.0 | 0.00 | 0.00 | 0.00 | 67 | 1011.6 |
| 20260509021607 | 11 | 116 | 0.0 | 0.0 | 0.00 | 0.00 | 0.00 | 67 | 1011.8 |
| 20260509021104 | 11 | 115 | 0.0 | 0.0 | 0.00 | 0.00 | 0.00 | 67 | 1011.8 |
| 20260509020603 | 11 | 117 | 0.0 | 0.0 | 0.00 | 0.00 | 0.00 | 65 | 1011.8 |
| 20260509020059 | 12 | 117 | 0.0 | 0.0 | 0.00 | 0.00 | 0.00 | 65 | 1011.6 |
| 20260509015558 | 12 | 116 | 0.0 | 0.0 | 0.00 | 0.00 | 0.00 | 65 | 1011.4 |
| 20260509015055 | 12 | 111 | 0.0 | 0.0 | 0.00 | 0.00 | 0.00 | 64 | 1011.5 |
| 20260509014551 | 12 | 115 | 0.0 | 0.0 | 0.00 | 0.00 | 0.00 | 64 | 1011.7 |
| 20260509014048 | 12 | 125 | 0.0 | 0.0 | 0.00 | 0.00 | 0.00 | 63 | 1012.0 |
| 20260509013545 | 12 | 41 | 3.2 | 4.8 | 0.00 | 0.00 | 0.00 | 63 | 1011.8 |
| 20260509013040 | 12 | 115 | 0.0 | 1.6 | 0.00 | 0.00 | 0.00 | 63 | 1011.7 |
| 20260509012537 | 12 | 94 | 0.0 | 1.6 | 0.00 | 0.00 | 0.00 | 63 | 1011.7 |
| 20260509012034 | 12 | 121 | 0.0 | 0.0 | 0.00 | 0.00 | 0.00 | 64 | 1011.4 |
| 20260509011532 | 12 | 60 | 1.6 | 1.6 | 0.00 | 0.00 | 0.00 | 64 | 1011.4 |
| 20260509011029 | 12 | 95 | 1.6 | 1.6 | 0.00 | 0.00 | 0.00 | 63 | 1011.2 |
| 20260509010527 | 12 | 83 | 1.6 | 1.6 | 0.00 | 0.00 | 0.00 | 63 | 1011.5 |
| 20260509010023 | 12 | 136 | 0.0 | 0.0 | 0.00 | 0.00 | 0.00 | 63 | 1011.1 |
| 20260509005521 | 12 | 106 | 0.0 | 0.0 | 0.00 | 0.00 | 0.00 | 63 | 1011.1 |
| 20260509005021 | 12 | 90 | 1.6 | 1.6 | 0.00 | 0.00 | 0.00 | 63 | 1011.2 |
| 20260509004518 | 12 | 114 | 0.0 | 0.0 | 0.00 | 0.00 | 0.00 | 62 | 1011.1 |
| 20260509004015 | 12 | 127 | 0.0 | 0.0 | 0.00 | 0.00 | 0.00 | 62 | 1011.2 |
| 20260509003514 | 12 | 115 | 0.0 | 0.0 | 0.00 | 0.00 | 0.00 | 61 | 1011.1 |
| 20260509003010 | 12 | 94 | 0.0 | 0.0 | 0.00 | 0.00 | 0.00 | 61 | 1010.9 |
| 20260509002508 | 12 | 106 | 0.0 | 0.0 | 0.00 | 0.00 | 0.00 | 61 | 1011.0 |
| 20260509002005 | 13 | 122 | 0.0 | 0.0 | 0.00 | 0.00 | 0.00 | 60 | 1010.9 |
| 20260509001502 | 13 | 106 | 0.0 | 0.0 | 0.00 | 0.00 | 0.00 | 61 | 1011.0 |
| 20260509000958 | 13 | 106 | 0.0 | 0.0 | 0.00 | 0.00 | 0.00 | 60 | 1011.2 |
| 20260509000457 | 13 | 119 | 0.0 | 0.0 | 0.00 | 0.00 | 0.00 | 59 | 1011.1 |
| 20260508235952 | 13 | 117 | 0.0 | 0.0 | 0.00 | 0.00 | 0.00 | 58 | 1011.2 |
| 20260508235450 | 13 | 124 | 0.0 | 0.0 | 0.00 | 0.00 | 0.00 | 57 | 1011.2 |
| 20260508234946 | 13 | 241 | 4.8 | 6.4 | 0.00 | 0.00 | 0.00 | 56 | 1011.2 |
| 20260508234443 | 14 | 120 | 0.0 | 1.6 | 0.00 | 0.00 | 0.00 | 56 | 1010.9 |
| 20260508233941 | 14 | 310 | 6.4 | 9.7 | 0.00 | 0.00 | 0.00 | 55 | 1010.7 |
| 20260508233440 | 14 | 303 | 1.6 | 4.8 | 0.00 | 0.00 | 0.00 | 54 | 1011.1 |
| 20260508232937 | 14 | 169 | 1.6 | 1.6 | 0.00 | 0.00 | 0.00 | 54 | 1011.1 |
| 20260508232434 | 14 | 120 | 0.0 | 1.6 | 0.00 | 0.00 | 0.00 | 55 | 1011.1 |
| 20260508231931 | 14 | 302 | 6.4 | 9.7 | 0.00 | 0.00 | 0.00 | 54 | 1011.2 |
| 20260508231428 | 14 | 246 | 8.0 | 11.3 | 0.00 | 0.00 | 0.00 | 54 | 1010.9 |
| 20260508230925 | 14 | 275 | 3.2 | 4.8 | 0.00 | 0.00 | 0.00 | 54 | 1010.8 |
| 20260508230421 | 14 | 177 | 1.6 | 1.6 | 0.00 | 0.00 | 0.00 | 53 | 1010.8 |
| 20260508225918 | 14 | 198 | 6.4 | 6.4 | 0.00 | 0.00 | 0.00 | 53 | 1011.0 |
| 20260508225415 | 14 | 219 | 4.8 | 9.7 | 0.00 | 0.00 | 0.00 | 53 | 1010.6 |
| 20260508224913 | 15 | 149 | 1.6 | 4.8 | 0.00 | 0.00 | 0.00 | 53 | 1010.8 |
| 20260508224410 | 15 | 144 | 0.0 | 1.6 | 0.00 | 0.00 | 0.00 | 54 | 1010.6 |
| 20260508223907 | 15 | 220 | 1.6 | 1.6 | 0.00 | 0.00 | 0.00 | 52 | 1010.6 |
| 20260508223405 | 15 | 143 | 0.0 | 0.0 | 0.00 | 0.00 | 0.00 | 53 | 1010.7 |
| 20260508222902 | 16 | 144 | 0.0 | 0.0 | 0.00 | 0.00 | 0.00 | 50 | 1010.7 |
| 20260508222359 | 16 | 183 | 6.4 | 6.4 | 0.00 | 0.00 | 0.00 | 51 | 1010.6 |
| 20260508221856 | 15 | 316 | 6.4 | 6.4 | 0.00 | 0.00 | 0.00 | 51 | 1010.9 |
| 20260508221351 | 15 | 284 | 8.0 | 11.3 | 0.00 | 0.00 | 0.00 | 54 | 1010.8 |
| 20260508220848 | 14 | 5 | 4.8 | 6.4 | 0.00 | 0.00 | 0.00 | 56 | 1010.8 |
| 20260508220344 | 14 | 187 | 6.4 | 6.4 | 0.00 | 0.00 | 0.00 | 56 | 1010.7 |
| 20260508215841 | 14 | 131 | 0.0 | 0.0 | 0.00 | 0.00 | 0.00 | 59 | 1010.8 |
| 20260508215338 | 14 | 313 | 8.0 | 9.7 | 0.00 | 0.00 | 0.00 | 57 | 1010.8 |
| 20260508214835 | 14 | 181 | 1.6 | 1.6 | 0.00 | 0.00 | 0.00 | 59 | 1010.7 |
| 20260508214332 | 13 | 111 | 0.0 | 1.6 | 0.00 | 0.00 | 0.00 | 64 | 1010.7 |
| 20260508213828 | 13 | 115 | 0.0 | 0.0 | 0.00 | 0.00 | 0.00 | 65 | 1010.6 |
| 20260508213325 | 13 | 116 | 0.0 | 0.0 | 0.00 | 0.00 | 0.00 | 64 | 1010.6 |
| 20260508212821 | 13 | 125 | 0.0 | 0.0 | 0.00 | 0.00 | 0.00 | 64 | 1010.4 |
| 20260508212318 | 13 | 123 | 0.0 | 0.0 | 0.00 | 0.00 | 0.00 | 64 | 1010.3 |
| 20260508211814 | 13 | 159 | 0.0 | 1.6 | 0.00 | 0.00 | 0.00 | 66 | 1010.7 |
| 20260508211309 | 13 | 9 | 1.6 | 1.6 | 0.00 | 0.00 | 0.00 | 66 | 1010.7 |
| 20260508210807 | 13 | 118 | 0.0 | 1.6 | 0.00 | 0.00 | 0.00 | 65 | 1010.5 |
| 20260508210304 | 13 | 149 | 0.0 | 1.6 | 0.00 | 0.00 | 0.00 | 64 | 1010.6 |
| 20260508205801 | 13 | 115 | 0.0 | 0.0 | 0.00 | 0.00 | 0.00 | 64 | 1010.5 |
| 20260508205257 | 15 | 99 | 1.6 | 1.6 | 0.00 | 0.00 | 0.00 | 60 | 1010.5 |
| 20260508204753 | 15 | 202 | 4.8 | 6.4 | 0.00 | 0.00 | 0.00 | 53 | 1010.6 |
| 20260508204250 | 15 | 205 | 6.4 | 6.4 | 0.00 | 0.00 | 0.00 | 57 | 1010.9 |
| 20260508203746 | 15 | 306 | 8.0 | 14.5 | 0.00 | 0.00 | 0.00 | 54 | 1010.9 |
| 20260508203243 | 14 | 201 | 6.4 | 9.7 | 0.00 | 0.00 | 0.00 | 57 | 1010.8 |
| 20260508202738 | 13 | 190 | 12.9 | 16.1 | 0.00 | 0.00 | 0.00 | 58 | 1010.9 |
| 20260508202236 | 13 | 289 | 8.0 | 11.3 | 0.00 | 0.00 | 0.00 | 59 | 1011.0 |
| 20260508201733 | 13 | 194 | 4.8 | 6.4 | 0.00 | 0.00 | 0.00 | 61 | 1010.8 |
| 20260508201229 | 13 | 139 | 1.6 | 1.6 | 0.00 | 0.00 | 0.00 | 65 | 1010.8 |
| 20260508200726 | 15 | 236 | 9.7 | 11.3 | 0.00 | 0.00 | 0.00 | 58 | 1010.9 |
| 20260508200222 | 16 | 198 | 6.4 | 9.7 | 0.00 | 0.00 | 0.00 | 45 | 1010.5 |
| 20260508195719 | 16 | 247 | 11.3 | 16.1 | 0.00 | 0.00 | 0.00 | 44 | 1010.4 |
| 20260508195215 | 16 | 274 | 11.3 | 16.1 | 0.00 | 0.00 | 0.00 | 44 | 1010.4 |
| 20260508194712 | 16 | 212 | 3.2 | 4.8 | 0.00 | 0.00 | 0.00 | 44 | 1010.5 |
| 20260508194209 | 16 | 187 | 4.8 | 6.4 | 0.00 | 0.00 | 0.00 | 44 | 1010.5 |
| 20260508193706 | 16 | 184 | 3.2 | 4.8 | 0.00 | 0.00 | 0.00 | 45 | 1010.7 |
| 20260508193203 | 16 | 194 | 3.2 | 4.8 | 0.00 | 0.00 | 0.00 | 47 | 1010.7 |
| 20260508192659 | 15 | 15 | 4.8 | 6.4 | 0.00 | 0.00 | 0.00 | 45 | 1010.7 |
| 20260508192156 | 15 | 277 | 11.3 | 14.5 | 0.00 | 0.00 | 0.00 | 43 | 1010.6 |
| 20260508191654 | 16 | 278 | 11.3 | 14.5 | 0.00 | 0.00 | 0.00 | 43 | 1010.8 |
| 20260508191150 | 16 | 211 | 4.8 | 9.7 | 0.00 | 0.00 | 0.00 | 42 | 1010.9 |
| 20260508190648 | 16 | 251 | 4.8 | 4.8 | 0.00 | 0.00 | 0.00 | 42 | 1010.9 |
| 20260508190144 | 16 | 321 | 9.7 | 11.3 | 0.00 | 0.00 | 0.00 | 41 | 1010.6 |
| 20260508185641 | 16 | 169 | 6.4 | 9.7 | 0.00 | 0.00 | 0.00 | 40 | 1010.5 |
| 20260508185138 | 16 | 191 | 9.7 | 11.3 | 0.00 | 0.00 | 0.00 | 40 | 1010.6 |
| 20260508184635 | 16 | 195 | 1.6 | 4.8 | 0.00 | 0.00 | 0.00 | 40 | 1010.5 |
| 20260508184132 | 16 | 188 | 6.4 | 9.7 | 0.00 | 0.00 | 0.00 | 38 | 1010.4 |
| 20260508183629 | 17 | 320 | 6.4 | 6.4 | 0.00 | 0.00 | 0.00 | 39 | 1010.3 |
| 20260508183125 | 17 | 302 | 3.2 | 4.8 | 0.00 | 0.00 | 0.00 | 38 | 1010.5 |
| 20260508182621 | 17 | 27 | 8.0 | 11.3 | 0.00 | 0.00 | 0.00 | 37 | 1010.5 |
| 20260508182118 | 17 | 188 | 3.2 | 4.8 | 0.00 | 0.00 | 0.00 | 37 | 1010.4 |
| 20260508181613 | 17 | 200 | 4.8 | 6.4 | 0.00 | 0.00 | 0.00 | 37 | 1010.4 |
| 20260508181111 | 18 | 207 | 8.0 | 9.7 | 0.00 | 0.00 | 0.00 | 37 | 1010.7 |
| 20260508180607 | 17 | 76 | 4.8 | 6.4 | 0.00 | 0.00 | 0.00 | 38 | 1011.1 |
| 20260508180103 | 17 | 211 | 8.0 | 9.7 | 0.00 | 0.00 | 0.00 | 37 | 1011.0 |
| 20260508175601 | 17 | 234 | 9.7 | 11.3 | 0.00 | 0.00 | 0.00 | 38 | 1011.0 |
| 20260508175058 | 18 | 187 | 8.0 | 9.7 | 0.00 | 0.00 | 0.00 | 38 | 1011.2 |
| 20260508174555 | 18 | 168 | 4.8 | 6.4 | 0.00 | 0.00 | 0.00 | 40 | 1011.3 |
| 20260508174052 | 17 | 354 | 11.3 | 16.1 | 0.00 | 0.00 | 0.00 | 38 | 1011.4 |
| 20260508173549 | 16 | 220 | 6.4 | 6.4 | 0.00 | 0.00 | 0.00 | 41 | 1011.7 |
| 20260508173045 | 16 | 226 | 4.8 | 4.8 | 0.00 | 0.00 | 0.00 | 42 | 1011.7 |
| 20260508172542 | 16 | 226 | 3.2 | 4.8 | 0.00 | 0.00 | 0.00 | 41 | 1011.4 |
| 20260508172039 | 15 | 218 | 6.4 | 9.7 | 0.00 | 0.00 | 0.00 | 41 | 1011.3 |
| 20260508171535 | 16 | 230 | 4.8 | 6.4 | 0.00 | 0.00 | 0.00 | 40 | 1011.4 |
| 20260508171032 | 16 | 164 | 9.7 | 14.5 | 0.00 | 0.00 | 0.00 | 40 | 1011.4 |
| 20260508170529 | 17 | 323 | 16.1 | 22.5 | 0.00 | 0.00 | 0.00 | 39 | 1011.4 |
| 20260508170026 | 17 | 215 | 8.0 | 9.7 | 0.00 | 0.00 | 0.00 | 38 | 1011.3 |
| 20260508165523 | 17 | 229 | 11.3 | 14.5 | 0.00 | 0.00 | 0.00 | 40 | 1011.7 |
| 20260508165020 | 17 | 1 | 8.0 | 16.1 | 0.00 | 0.00 | 0.00 | 39 | 1011.6 |
| 20260508164517 | 17 | 127 | 3.2 | 4.8 | 0.00 | 0.00 | 0.00 | 42 | 1011.6 |
| 20260508164013 | 15 | 178 | 6.4 | 9.7 | 0.00 | 0.00 | 0.00 | 43 | 1011.6 |
| 20260508163511 | 15 | 190 | 3.2 | 4.8 | 0.00 | 0.00 | 0.00 | 44 | 1011.7 |
| 20260508163007 | 15 | 194 | 9.7 | 11.3 | 0.00 | 0.00 | 0.00 | 44 | 1011.9 |
| 20260508162504 | 15 | 67 | 8.0 | 14.5 | 0.00 | 0.00 | 0.00 | 43 | 1011.8 |
| 20260508162001 | 15 | 295 | 6.4 | 6.4 | 0.00 | 0.00 | 0.00 | 44 | 1011.9 |
| 20260508161458 | 15 | 210 | 4.8 | 6.4 | 0.00 | 0.00 | 0.00 | 43 | 1011.9 |
| 20260508160955 | 16 | 114 | 1.6 | 1.6 | 0.00 | 0.00 | 0.00 | 43 | 1012.0 |
| 20260508160454 | 16 | 199 | 8.0 | 9.7 | 0.00 | 0.00 | 0.00 | 42 | 1012.0 |
| 20260508155950 | 16 | 1 | 6.4 | 9.7 | 0.00 | 0.00 | 0.00 | 41 | 1012.1 |
| 20260508155447 | 16 | 233 | 8.0 | 11.3 | 0.00 | 0.00 | 0.00 | 40 | 1012.0 |
| 20260508154944 | 16 | 223 | 11.3 | 14.5 | 0.00 | 0.00 | 0.00 | 40 | 1012.3 |
| 20260508154442 | 15 | 346 | 8.0 | 11.3 | 0.00 | 0.00 | 0.00 | 41 | 1012.1 |
| 20260508153938 | 16 | 314 | 8.0 | 14.5 | 0.00 | 0.00 | 0.00 | 42 | 1012.3 |
| 20260508153435 | 15 | 265 | 11.3 | 11.3 | 0.00 | 0.00 | 0.00 | 43 | 1012.1 |
| 20260508152931 | 15 | 324 | 9.7 | 16.1 | 0.00 | 0.00 | 0.00 | 42 | 1012.4 |
| 20260508152428 | 15 | 158 | 3.2 | 4.8 | 0.00 | 0.00 | 0.00 | 44 | 1012.3 |
| 20260508151924 | 15 | 284 | 11.3 | 14.5 | 0.00 | 0.00 | 0.00 | 44 | 1012.1 |
| 20260508151422 | 15 | 232 | 8.0 | 14.5 | 0.00 | 0.00 | 0.00 | 44 | 1012.2 |
| 20260508150918 | 15 | 232 | 8.0 | 14.5 | 0.00 | 0.00 | 0.00 | 44 | 1012.2 |
| 20260508150414 | 15 | 281 | 8.0 | 14.5 | 0.00 | 0.00 | 0.00 | 45 | 1012.1 |
| 20260508145910 | 15 | 167 | 8.0 | 14.5 | 0.00 | 0.00 | 0.00 | 45 | 1012.2 |
| 20260508145407 | 15 | 262 | 3.2 | 4.8 | 0.00 | 0.00 | 0.00 | 46 | 1012.2 |
| 20260508144904 | 14 | 205 | 8.0 | 9.7 | 0.00 | 0.00 | 0.00 | 46 | 1012.4 |
| 20260508144402 | 14 | 141 | 11.3 | 16.1 | 0.00 | 0.00 | 0.00 | 47 | 1012.3 |
| 20260508143859 | 13 | 45 | 3.2 | 9.7 | 0.00 | 0.00 | 0.00 | 48 | 1012.3 |
| 20260508143356 | 13 | 296 | 6.4 | 9.7 | 0.00 | 0.00 | 0.00 | 47 | 1012.4 |
| 20260508142852 | 13 | 182 | 4.8 | 6.4 | 0.00 | 0.00 | 0.00 | 48 | 1012.4 |
| 20260508142350 | 13 | 234 | 9.7 | 14.5 | 0.00 | 0.00 | 0.00 | 48 | 1012.2 |
| 20260508141846 | 13 | 206 | 6.4 | 6.4 | 0.00 | 0.00 | 0.00 | 48 | 1012.2 |
| 20260508141343 | 13 | 194 | 12.9 | 16.1 | 0.00 | 0.00 | 0.00 | 48 | 1012.4 |
| 20260508140841 | 13 | 188 | 9.7 | 11.3 | 0.00 | 0.00 | 0.00 | 49 | 1012.3 |
| 20260508140337 | 12 | 196 | 3.2 | 4.8 | 0.00 | 0.00 | 0.00 | 50 | 1012.6 |
| 20260508135833 | 12 | 180 | 3.2 | 4.8 | 0.00 | 0.00 | 0.00 | 53 | 1012.6 |
| 20260508135330 | 12 | 162 | 3.2 | 4.8 | 0.00 | 0.00 | 0.00 | 52 | 1012.8 |
| 20260508134826 | 11 | 185 | 6.4 | 9.7 | 0.00 | 0.00 | 0.00 | 54 | 1012.6 |
| 20260508134322 | 11 | 181 | 9.7 | 14.5 | 0.00 | 0.00 | 0.00 | 54 | 1012.7 |
| 20260508133819 | 11 | 183 | 4.8 | 4.8 | 0.00 | 0.00 | 0.00 | 56 | 1012.7 |
| 20260508133317 | 11 | 190 | 3.2 | 4.8 | 0.00 | 0.00 | 0.00 | 57 | 1012.7 |
| 20260508132814 | 10 | 182 | 4.8 | 6.4 | 0.00 | 0.00 | 0.00 | 60 | 1012.8 |
| 20260508132312 | 10 | 169 | 4.8 | 4.8 | 0.00 | 0.00 | 0.00 | 60 | 1012.9 |
| 20260508131808 | 10 | 152 | 8.0 | 9.7 | 0.00 | 0.00 | 0.00 | 62 | 1012.8 |
| 20260508131304 | 9 | 94 | 3.2 | 4.8 | 0.00 | 0.00 | 0.00 | 62 | 1012.9 |
| 20260508130800 | 9 | 155 | 1.6 | 1.6 | 0.00 | 0.00 | 0.00 | 63 | 1013.3 |
| 20260508130258 | 8 | 155 | 6.4 | 9.7 | 0.00 | 0.00 | 0.00 | 64 | 1013.3 |
| 20260508125754 | 8 | 148 | 1.6 | 1.6 | 0.00 | 0.00 | 0.00 | 65 | 1013.3 |
| 20260508125250 | 7 | 136 | 1.6 | 1.6 | 0.00 | 0.00 | 0.00 | 67 | 1013.3 |
| 20260508124749 | 6 | 151 | 0.0 | 0.0 | 0.00 | 0.00 | 0.00 | 70 | 1013.4 |
| 20260508124245 | 6 | 157 | 3.2 | 4.8 | 0.00 | 0.00 | 0.00 | 70 | 1013.3 |
| 20260508123743 | 6 | 150 | 1.6 | 1.6 | 0.00 | 0.00 | 0.00 | 71 | 1013.5 |
| 20260508123241 | 5 | 136 | 1.6 | 1.6 | 0.00 | 0.00 | 0.00 | 75 | 1013.4 |
| 20260508122737 | 5 | 135 | 1.6 | 1.6 | 0.00 | 0.00 | 0.00 | 76 | 1013.3 |
| 20260508122234 | 4 | 136 | 0.0 | 0.0 | 0.00 | 0.00 | 0.00 | 77 | 1013.6 |
| 20260508121731 | 4 | 137 | 1.6 | 1.6 | 0.00 | 0.00 | 0.00 | 78 | 1013.5 |
| 20260508121230 | 4 | 135 | 0.0 | 0.0 | 0.00 | 0.00 | 0.00 | 79 | 1013.4 |
| 20260508120726 | 4 | 135 | 0.0 | 0.0 | 0.00 | 0.00 | 0.00 | 79 | 1013.7 |
| 20260508120225 | 4 | 142 | 0.0 | 0.0 | 0.00 | 0.00 | 0.00 | 79 | 1013.5 |
| 20260508115722 | 4 | 146 | 1.6 | 1.6 | 0.00 | 0.00 | 0.00 | 79 | 1013.5 |
| 20260508115220 | 3 | 123 | 0.0 | 0.0 | 0.00 | 0.00 | 0.00 | 79 | 1013.3 |
| 20260508114716 | 3 | 122 | 0.0 | 0.0 | 0.00 | 0.00 | 0.00 | 79 | 1013.5 |
| 20260508114213 | 3 | 122 | 0.0 | 0.0 | 0.00 | 0.00 | 0.00 | 80 | 1013.6 |
| 20260508113709 | 3 | 123 | 0.0 | 0.0 | 0.00 | 0.00 | 0.00 | 80 | 1013.5 |
| 20260508113208 | 3 | 143 | 0.0 | 1.6 | 0.00 | 0.00 | 0.00 | 80 | 1013.3 |
| 20260508112703 | 3 | 150 | 1.6 | 1.6 | 0.00 | 0.00 | 0.00 | 80 | 1013.1 |
| 20260508112201 | 3 | 141 | 1.6 | 1.6 | 0.00 | 0.00 | 0.00 | 80 | 1013.3 |
| 20260508111657 | 3 | 129 | 0.0 | 0.0 | 0.00 | 0.00 | 0.00 | 80 | 1013.3 |
| 20260508111155 | 3 | 128 | 1.6 | 1.6 | 0.00 | 0.00 | 0.00 | 80 | 1013.3 |
| 20260508110652 | 3 | 141 | 0.0 | 0.0 | 0.00 | 0.00 | 0.00 | 80 | 1013.5 |
| 20260508110149 | 3 | 143 | 0.0 | 0.0 | 0.00 | 0.00 | 0.00 | 81 | 1013.3 |
| 20260508105643 | 3 | 146 | 0.0 | 0.0 | 0.00 | 0.00 | 0.00 | 81 | 1013.0 |
| 20260508105140 | 3 | 120 | 0.0 | 0.0 | 0.00 | 0.00 | 0.00 | 82 | 1013.0 |
| 20260508104638 | 2 | 120 | 0.0 | 0.0 | 0.00 | 0.00 | 0.00 | 82 | 1012.9 |
| 20260508104135 | 2 | 120 | 0.0 | 0.0 | 0.00 | 0.00 | 0.00 | 82 | 1012.9 |
| 20260508103632 | 2 | 119 | 0.0 | 0.0 | 0.00 | 0.00 | 0.00 | 82 | 1012.6 |
| 20260508103129 | 1 | 120 | 0.0 | 0.0 | 0.00 | 0.00 | 0.00 | 82 | 1013.0 |
| 20260508102626 | 2 | 115 | 0.0 | 0.0 | 0.00 | 0.00 | 0.00 | 82 | 1012.8 |
| 20260508102124 | 2 | 116 | 0.0 | 0.0 | 0.00 | 0.00 | 0.00 | 82 | 1012.6 |